Weather History for KCIR - February, 2013

Change the Weather History Date:

Tuesday, February 5, 2013

  Actual Average (KPAH) Record (KPAH)
Temperature  
Mean Temperature 42 °F 37 °F  
Max Temperature 55 °F 46 °F 76 °F (2008)
Min Temperature 30 °F 27 °F 5 °F (1996)
Degree Days  
Heating Degree Days 22 28  
Month to date heating degree days 144  
Since 1 July heating degree days 2717  
Cooling Degree Days 0 0  
Month to date cooling degree days 0  
Year to date cooling degree days 0  
Moisture  
Dew Point 35 °F    
Average Humidity 79    
Maximum Humidity 93    
Minimum Humidity 58    
Precipitation  
Precipitation 0.00 in 0.14 in 1.61 in (1991)
Month to date precipitation 0.72  
Year to date precipitation 4.40  
Snow  
Snow 0.00 in 0.10 in 3.00 in (1984)
Month to date snowfall 0.6  
Since 1 July snowfall 5.9  
Snow Depth -    
Sea Level Pressure  
Sea Level Pressure 29.99 in    
Wind  
Wind Speed 4 mph (West)    
Max Wind Speed 13 mph    
Max Gust Speed 16 mph    
Visibility 7 miles    
Events Fog , Snow    
T = Trace of Precipitation, MM = Missing Value Source: NWS Daily Summary

Daily Weather History Graph

Daily Weather History Graph

Search for Another Location

Airport or City:

Trip Planner

Search our weather history database for the weather conditions in past years. The results will help you decide how hot, cold, wet, or windy it might be!

Date:

Astronomy

Feb. 05, 2013 Rise Set
Actual Time 6:55 AM CST 5:26 PM CST
Civil Twilight 6:28 AM CST 5:53 PM CST
Nautical Twilight 5:57 AM CST 6:24 PM CST
Astronomical Twilight 5:27 AM CST 6:55 PM CST
Moon 2:35 AM CST (2/5) 12:46 PM CST (2/5)
Length of Visible Light 11h 25m
Length of Day
10h 30m
Waning Crescent, 26% of the Moon is Illuminated
Feb 5
Waning Crescent
Feb 10
New
Feb 17
First Quarter
Feb 25
Full
Mar 4
Last Quarter

Hourly Weather History & Observations

Time (CST) Temp. Windchill Dew Point Humidity Pressure Visibility Wind Dir Wind Speed Gust Speed Precip Events Conditions
12:15 AM 42.8 °F 41.1 °F 39.2 °F 87% 29.95 in 10.0 mi NW 3.5 mph - N/A   Overcast
12:35 AM 42.8 °F 39.3 °F 39.2 °F 87% 29.94 in 10.0 mi North 5.8 mph - N/A   Overcast
12:55 AM 41.0 °F 37.1 °F 37.4 °F 87% 29.93 in 10.0 mi North 5.8 mph - N/A   Mostly Cloudy
1:15 AM 39.2 °F 34.2 °F 35.6 °F 87% 29.94 in 10.0 mi North 6.9 mph - N/A   Clear
1:35 AM 37.4 °F 32.8 °F 32.0 °F 81% 29.95 in 10.0 mi North 5.8 mph - N/A   Scattered Clouds
1:55 AM 39.2 °F 34.2 °F 32.0 °F 75% 29.95 in 10.0 mi North 6.9 mph - N/A   Mostly Cloudy
2:15 AM 37.4 °F 32.1 °F 32.0 °F 81% 29.95 in 10.0 mi North 6.9 mph - N/A   Mostly Cloudy
2:35 AM 37.4 °F 33.8 °F 32.0 °F 81% 29.95 in 10.0 mi North 4.6 mph - N/A   Overcast
2:55 AM 37.4 °F 34.9 °F 30.2 °F 75% 29.95 in 10.0 mi North 3.5 mph - N/A   Scattered Clouds
3:15 AM 35.6 °F 32.8 °F 30.2 °F 81% 29.95 in 10.0 mi NNE 3.5 mph - N/A   Clear
3:35 AM 35.6 °F 32.8 °F 30.2 °F 81% 29.95 in 10.0 mi NNE 3.5 mph - N/A   Clear
3:55 AM 35.6 °F 30.7 °F 30.2 °F 81% 29.95 in 10.0 mi North 5.8 mph - N/A   Clear
4:15 AM 33.8 °F - 28.4 °F 81% 29.95 in 10.0 mi Calm Calm - N/A   Clear
4:35 AM 33.8 °F - 28.4 °F 81% 29.95 in 10.0 mi Calm Calm - N/A   Clear
4:55 AM 33.8 °F - 28.4 °F 81% 29.95 in 10.0 mi Calm Calm - N/A   Clear
5:15 AM 32.0 °F - 28.4 °F 87% 29.95 in 7.0 mi Calm Calm - N/A   Clear
5:35 AM 32.0 °F 28.7 °F 28.4 °F 87% 29.96 in 7.0 mi North 3.5 mph - N/A   Clear
5:55 AM 30.2 °F - 26.6 °F 86% 29.96 in 5.0 mi Calm Calm - N/A   Clear
6:15 AM 30.2 °F - 26.6 °F 86% 29.97 in 5.0 mi Calm Calm - N/A   Clear
6:35 AM 30.2 °F 24.3 °F 26.6 °F 86% 30.00 in 5.0 mi NW 5.8 mph - N/A   Clear
6:55 AM 30.2 °F 25.4 °F 28.4 °F 93% 30.00 in 5.0 mi North 4.6 mph - N/A   Clear
7:15 AM 32.0 °F 28.7 °F 28.4 °F 87% 30.01 in 5.0 mi North 3.5 mph - N/A   Clear
7:35 AM 32.0 °F - 30.2 °F 93% 30.01 in 5.0 mi Calm Calm - N/A   Clear
7:55 AM 33.8 °F 29.6 °F 30.2 °F 87% 30.01 in 5.0 mi NNE 4.6 mph - N/A   Clear
8:15 AM 33.8 °F 30.8 °F 30.2 °F 87% 30.01 in 5.0 mi NE 3.5 mph - N/A   Clear
8:35 AM 35.6 °F - 32.0 °F 87% 30.02 in 7.0 mi Calm Calm - N/A   Clear
8:55 AM 35.6 °F - 32.0 °F 87% 30.02 in 7.0 mi Calm Calm - N/A   Clear
9:15 AM 37.4 °F - 32.0 °F 81% 30.03 in 7.0 mi Calm Calm - N/A   Clear
9:35 AM 39.2 °F - 32.0 °F 75% 30.03 in 7.0 mi Calm Calm - N/A   Clear
9:55 AM 39.2 °F - 33.8 °F 81% 30.03 in 7.0 mi Calm Calm - N/A   Clear
10:15 AM 42.8 °F 40.1 °F 35.6 °F 76% 30.03 in 10.0 mi SSE 4.6 mph - N/A   Clear
10:35 AM 42.8 °F 39.3 °F 35.6 °F 76% 30.03 in 7.0 mi SSE 5.8 mph - N/A   Clear
10:55 AM 44.6 °F 41.4 °F 35.6 °F 71% 30.02 in 7.0 mi SE 5.8 mph - N/A   Clear
11:15 AM 44.6 °F 42.2 °F 37.4 °F 76% 30.02 in 7.0 mi SE 4.6 mph - N/A   Clear
11:35 AM 46.4 °F 45.2 °F 37.4 °F 71% 30.01 in 7.0 mi South 3.5 mph - N/A   Clear
11:55 AM 48.2 °F - 39.2 °F 71% 30.00 in 10.0 mi South 6.9 mph - N/A   Clear
12:15 PM 50.0 °F - 39.2 °F 66% 29.99 in 10.0 mi SW 6.9 mph - N/A   Clear
12:35 PM 50.0 °F - 39.2 °F 66% 29.98 in 10.0 mi South 9.2 mph - N/A   Clear
12:55 PM 51.8 °F - 39.2 °F 62% 29.96 in 10.0 mi South 9.2 mph - N/A   Clear
1:15 PM 51.8 °F - 39.2 °F 62% 29.96 in 10.0 mi SSW 9.2 mph - N/A   Clear
1:35 PM 51.8 °F - 41.0 °F 67% 29.96 in 10.0 mi SSW 11.5 mph - N/A   Clear
1:55 PM 53.6 °F - 41.0 °F 62% 29.95 in 10.0 mi SSW 9.2 mph - N/A   Clear
2:15 PM 53.6 °F - 39.2 °F 58% 29.96 in 10.0 mi SW 11.5 mph - N/A   Clear
2:35 PM 55.4 °F - 41.0 °F 58% 29.96 in 10.0 mi SW 11.5 mph - N/A   Clear
2:55 PM 55.4 °F - 41.0 °F 58% 29.96 in 10.0 mi SW 12.7 mph 16.1 mph N/A   Clear
3:15 PM 53.6 °F - 41.0 °F 62% 29.96 in 10.0 mi SW 11.5 mph 16.1 mph N/A   Clear
3:35 PM 53.6 °F - 41.0 °F 62% 29.96 in 10.0 mi SW 11.5 mph - N/A   Clear
3:55 PM 53.6 °F - 41.0 °F 62% 29.96 in 10.0 mi SW 6.9 mph - N/A   Clear
4:15 PM 53.6 °F - 41.0 °F 62% 29.97 in 10.0 mi SSW 6.9 mph - N/A   Clear
4:35 PM 53.6 °F - 41.0 °F 62% 29.96 in 10.0 mi SW 6.9 mph - N/A   Clear
4:55 PM 53.6 °F - 41.0 °F 62% 29.97 in 10.0 mi SSW 5.8 mph - N/A   Clear
5:15 PM 51.8 °F - 41.0 °F 67% 29.97 in 10.0 mi SSW 3.5 mph - N/A   Clear
5:35 PM 50.0 °F - 41.0 °F 71% 29.97 in 10.0 mi WSW 3.5 mph - N/A   Clear
5:55 PM 48.2 °F - 41.0 °F 76% 29.98 in 10.0 mi South 3.5 mph - N/A   Clear
6:15 PM 48.2 °F - 42.8 °F 82% 29.98 in 7.0 mi South 3.5 mph - N/A   Clear
6:35 PM 46.4 °F - 41.0 °F 81% 29.99 in 7.0 mi Calm Calm - N/A   Clear
6:55 PM 44.6 °F - 39.2 °F 81% 30.00 in 7.0 mi Calm Calm - N/A   Clear
7:15 PM 44.6 °F - 39.2 °F 81% 30.02 in 7.0 mi Calm Calm - N/A   Clear
7:35 PM 41.0 °F - 35.6 °F 81% 30.02 in 4.0 mi Calm Calm - N/A   Clear
7:55 PM 42.8 °F - 37.4 °F 81% 30.03 in 0.5 mi Calm Calm - N/A Fog Fog
8:15 PM 42.8 °F - 39.2 °F 87% 30.03 in 1.5 mi Calm Calm - N/A   Mist
8:35 PM 41.0 °F - 37.4 °F 87% 30.04 in 0.2 mi Calm Calm - N/A Fog Fog
8:55 PM 37.4 °F - 33.8 °F 87% 30.05 in 0.2 mi Calm Calm - N/A Fog Fog
9:15 PM 35.6 °F - 32.0 °F 87% 30.06 in 0.2 mi Calm Calm - N/A Fog Fog
9:35 PM 39.2 °F - 35.6 °F 87% 30.07 in 0.2 mi Calm Calm - N/A Fog Fog
9:55 PM 37.4 °F - 35.6 °F 93% 30.07 in 0.2 mi Calm Calm - N/A Fog Fog
10:15 PM 35.6 °F - 32.0 °F 87% 30.07 in 0.2 mi Calm Calm - N/A Fog Fog
10:35 PM 33.8 °F - 32.0 °F 93% 30.08 in 0.2 mi Calm Calm - N/A Snow Light Snow
10:55 PM 33.8 °F - 32.0 °F 93% 30.09 in 0.2 mi Calm Calm - N/A Fog Fog
11:15 PM 35.6 °F 31.7 °F 32.0 °F 87% 30.09 in 0.2 mi North 4.6 mph - N/A Fog Fog
11:35 PM 35.6 °F 32.8 °F 32.0 °F 87% 30.10 in 0.5 mi North 3.5 mph - N/A Fog Fog
11:55 PM 39.2 °F 37.0 °F 37.4 °F 93% 30.10 in 7.0 mi North 3.5 mph - N/A   Clear